| time (UTC) | temp C | wind direction | speed KPH | gust KPH | rain 1hr cm | rain 24hr cm | rain mn cm | humidity % | barometer mb |
| 20260508041736 | 9 | 325 | 3.2 | 12.9 | 0.00 | 0.23 | 0.18 | 78 | 1015.4 |
| 20260508041236 | 9 | 325 | 4.8 | 16.1 | 0.00 | 0.23 | 0.18 | 78 | 1015.4 |
| 20260508040736 | 9 | 325 | 1.6 | 16.1 | 0.00 | 0.23 | 0.18 | 79 | 1015.3 |
| 20260508040236 | 10 | 324 | 3.2 | 12.9 | 0.00 | 0.23 | 0.18 | 78 | 1015.4 |
| 20260508035736 | 10 | 324 | 3.2 | 12.9 | 0.00 | 0.23 | 0.18 | 78 | 1015.4 |
| 20260508035236 | 10 | 325 | 1.6 | 9.7 | 0.00 | 0.23 | 0.18 | 77 | 1015.3 |
| 20260508034737 | 10 | 0 | 0.0 | 9.7 | 0.00 | 0.23 | 0.18 | 77 | 1015.3 |
| 20260508034236 | 10 | 0 | 0.0 | 9.7 | 0.00 | 0.23 | 0.18 | 77 | 1015.3 |
| 20260508033413 | 10 | 324 | 1.6 | 14.5 | 0.00 | 0.23 | 0.18 | 78 | 1015.2 |
| 20260508032913 | 10 | 324 | 1.6 | 16.1 | 0.00 | 0.23 | 0.18 | 78 | 1015.2 |
| 20260508032414 | 10 | 324 | 6.4 | 19.3 | 0.00 | 0.25 | 0.18 | 79 | 1015.0 |
| 20260508031913 | 9 | 329 | 4.8 | 27.4 | 0.00 | 0.28 | 0.18 | 80 | 1014.9 |
| 20260508031414 | 9 | 327 | 8.0 | 27.4 | 0.00 | 0.28 | 0.18 | 80 | 1014.8 |
| 20260508030105 | 9 | 321 | 6.4 | 14.5 | 0.00 | 0.33 | 0.18 | 81 | 1014.8 |
| 20260508025606 | 9 | 327 | 6.4 | 12.9 | 0.00 | 0.33 | 0.18 | 82 | 1014.7 |
| 20260508025106 | 9 | 328 | 6.4 | 17.7 | 0.00 | 0.33 | 0.18 | 81 | 1014.7 |
| 20260508024607 | 10 | 325 | 8.0 | 19.3 | 0.00 | 0.36 | 0.18 | 81 | 1014.6 |
| 20260508024106 | 10 | 319 | 9.7 | 19.3 | 0.00 | 0.36 | 0.18 | 80 | 1014.7 |
| 20260508023606 | 10 | 322 | 4.8 | 17.7 | 0.00 | 0.36 | 0.18 | 80 | 1014.5 |
| 20260508023105 | 10 | 320 | 4.8 | 17.7 | 0.00 | 0.36 | 0.18 | 80 | 1014.5 |
| 20260508022607 | 10 | 323 | 4.8 | 12.9 | 0.00 | 0.36 | 0.18 | 80 | 1014.3 |
| 20260508022104 | 10 | 322 | 3.2 | 16.1 | 0.00 | 0.36 | 0.18 | 79 | 1014.4 |
| 20260508021604 | 10 | 350 | 3.2 | 16.1 | 0.00 | 0.38 | 0.18 | 79 | 1014.3 |
| 20260508021105 | 10 | 318 | 4.8 | 14.5 | 0.00 | 0.38 | 0.18 | 78 | 1014.3 |
| 20260508020606 | 10 | 315 | 4.8 | 14.5 | 0.00 | 0.38 | 0.18 | 78 | 1014.2 |
| 20260508020104 | 10 | 335 | 6.4 | 16.1 | 0.00 | 0.38 | 0.18 | 78 | 1014.0 |
| 20260508015604 | 10 | 348 | 3.2 | 22.5 | 0.00 | 0.38 | 0.18 | 78 | 1013.8 |
| 20260508015106 | 10 | 324 | 3.2 | 22.5 | 0.00 | 0.41 | 0.18 | 79 | 1013.8 |
| 20260508014605 | 10 | 325 | 9.7 | 25.7 | 0.00 | 0.41 | 0.18 | 81 | 1013.7 |
| 20260508014106 | 10 | 316 | 8.0 | 25.7 | 0.00 | 0.41 | 0.18 | 80 | 1013.6 |
| 20260508013604 | 10 | 325 | 12.9 | 24.1 | 0.00 | 0.41 | 0.18 | 82 | 1013.6 |
| 20260508013106 | 10 | 326 | 4.8 | 17.7 | 0.00 | 0.41 | 0.18 | 82 | 1013.5 |
| 20260508012604 | 10 | 332 | 4.8 | 14.5 | 0.00 | 0.41 | 0.18 | 82 | 1013.5 |
| 20260508012104 | 10 | 324 | 4.8 | 12.9 | 0.00 | 0.41 | 0.18 | 80 | 1013.4 |
| 20260508011606 | 10 | 0 | 0.0 | 14.5 | 0.00 | 0.41 | 0.18 | 80 | 1013.3 |
| 20260508011106 | 10 | 319 | 4.8 | 17.7 | 0.00 | 0.43 | 0.18 | 80 | 1013.2 |
| 20260508010606 | 10 | 360 | 4.8 | 17.7 | 0.00 | 0.43 | 0.18 | 81 | 1013.0 |
| 20260508005735 | 10 | 0 | 0.0 | 17.7 | 0.00 | 0.43 | 0.18 | 83 | 1012.9 |
| 20260508005235 | 10 | 331 | 1.6 | 17.7 | 0.00 | 0.43 | 0.18 | 85 | 1012.8 |
| 20260508004735 | 10 | 331 | 4.8 | 20.9 | 0.00 | 0.43 | 0.18 | 85 | 1012.9 |
| 20260508004235 | 10 | 339 | 6.4 | 20.9 | 0.00 | 0.43 | 0.18 | 84 | 1012.9 |
| 20260508003735 | 10 | 0 | 0.0 | 33.8 | 0.00 | 0.43 | 0.18 | 85 | 1013.1 |
| 20260508003235 | 10 | 333 | 11.3 | 33.8 | 0.00 | 0.43 | 0.18 | 84 | 1012.8 |
| 20260508002735 | 11 | 333 | 8.0 | 24.1 | 0.00 | 0.43 | 0.18 | 84 | 1012.8 |
| 20260508002235 | 11 | 348 | 9.7 | 24.1 | 0.00 | 0.43 | 0.18 | 83 | 1012.8 |
| 20260508001735 | 11 | 323 | 9.7 | 20.9 | 0.00 | 0.43 | 0.18 | 85 | 1012.9 |
| 20260508001235 | 11 | 330 | 9.7 | 20.9 | 0.00 | 0.43 | 0.18 | 89 | 1012.9 |
| 20260508000735 | 11 | 314 | 4.8 | 14.5 | 0.00 | 0.43 | 0.18 | 92 | 1012.9 |
| 20260508000235 | 11 | 318 | 3.2 | 24.1 | 0.00 | 0.43 | 0.18 | 92 | 1012.7 |
| 20260507235735 | 11 | 325 | 3.2 | 24.1 | 0.00 | 0.43 | 0.18 | 94 | 1012.7 |
| 20260507235236 | 11 | 336 | 4.8 | 20.9 | 0.00 | 0.43 | 0.18 | 95 | 1012.7 |
| 20260507234735 | 11 | 325 | 1.6 | 19.3 | 0.00 | 0.43 | 0.18 | 96 | 1012.5 |
| 20260507234235 | 11 | 344 | 3.2 | 33.8 | 0.00 | 0.43 | 0.18 | 97 | 1012.5 |
| 20260507233735 | 11 | 324 | 6.4 | 33.8 | 0.00 | 0.43 | 0.18 | 98 | 1012.3 |
| 20260507233235 | 11 | 333 | 6.4 | 27.4 | 0.00 | 0.43 | 0.18 | 99 | 1012.2 |
| 20260507232735 | 11 | 310 | 4.8 | 22.5 | 0.00 | 0.43 | 0.18 | 99 | 1012.1 |
| 20260507232235 | 11 | 324 | 4.8 | 16.1 | 0.00 | 0.43 | 0.18 | 100 | 1012.1 |
| 20260507231735 | 11 | 323 | 3.2 | 16.1 | 0.00 | 0.43 | 0.18 | 100 | 1012.0 |
| 20260507231235 | 11 | 9 | 4.8 | 16.1 | 0.00 | 0.43 | 0.18 | 100 | 1011.8 |
| 20260507230735 | 11 | 323 | 6.4 | 16.1 | 0.00 | 0.43 | 0.18 | 100 | 1011.7 |
| 20260507230235 | 11 | 341 | 4.8 | 16.1 | 0.00 | 0.43 | 0.18 | 100 | 1011.7 |
| 20260507225722 | 11 | 313 | 6.4 | 17.7 | 0.00 | 0.43 | 0.18 | 100 | 1011.7 |
| 20260507225222 | 11 | 327 | 6.4 | 17.7 | 0.00 | 0.43 | 0.18 | 100 | 1011.7 |
| 20260507224722 | 11 | 337 | 4.8 | 17.7 | 0.00 | 0.43 | 0.18 | 100 | 1011.7 |
| 20260507224224 | 11 | 0 | 0.0 | 4.8 | 0.00 | 0.43 | 0.18 | 100 | 1011.6 |
| 20260507223722 | 11 | 0 | 0.0 | 1.6 | 0.00 | 0.43 | 0.18 | 100 | 1011.6 |
| 20260507223222 | 12 | 0 | 0.0 | 1.6 | 0.00 | 0.43 | 0.18 | 100 | 1011.6 |
| 20260507222722 | 11 | 0 | 0.0 | 3.2 | 0.00 | 0.43 | 0.18 | 100 | 1011.5 |
| 20260507222225 | 11 | 0 | 0.0 | 3.2 | 0.00 | 0.43 | 0.18 | 100 | 1011.4 |
| 20260507221722 | 11 | 0 | 0.0 | 9.7 | 0.00 | 0.43 | 0.18 | 100 | 1011.4 |
| 20260507221222 | 11 | 0 | 0.0 | 9.7 | 0.00 | 0.43 | 0.18 | 100 | 1011.4 |
| 20260507220722 | 11 | 0 | 0.0 | 4.8 | 0.00 | 0.43 | 0.18 | 100 | 1011.3 |
| 20260507220222 | 12 | 0 | 0.0 | 1.6 | 0.00 | 0.43 | 0.18 | 100 | 1011.2 |
| 20260507215722 | 12 | 0 | 0.0 | 17.7 | 0.00 | 0.43 | 0.18 | 100 | 1011.1 |
| 20260507215222 | 12 | 335 | 4.8 | 17.7 | 0.00 | 0.43 | 0.18 | 100 | 1010.9 |
| 20260507214722 | 12 | 335 | 3.2 | 17.7 | 0.00 | 0.43 | 0.18 | 100 | 1010.9 |
| 20260507214222 | 12 | 0 | 0.0 | 17.7 | 0.00 | 0.43 | 0.18 | 100 | 1010.9 |
| 20260507213722 | 11 | 343 | 3.2 | 16.1 | 0.00 | 0.43 | 0.18 | 100 | 1010.9 |
| 20260507213223 | 12 | 0 | 0.0 | 0.0 | 0.00 | 0.43 | 0.18 | 100 | 1011.0 |
| 20260507212722 | 12 | 0 | 0.0 | 6.4 | 0.00 | 0.43 | 0.18 | 100 | 1011.0 |
| 20260507212222 | 11 | 0 | 0.0 | 6.4 | 0.00 | 0.43 | 0.18 | 100 | 1011.0 |
| 20260507210847 | 11 | 345 | 6.4 | 19.3 | 0.00 | 0.43 | 0.18 | 100 | 1010.7 |
| 20260507210347 | 11 | 0 | 0.0 | 14.5 | 0.00 | 0.43 | 0.18 | 100 | 1010.7 |
| 20260507205847 | 11 | 0 | 0.0 | 14.5 | 0.00 | 0.43 | 0.18 | 100 | 1010.7 |
| 20260507205347 | 11 | 346 | 1.6 | 16.1 | 0.00 | 0.43 | 0.18 | 100 | 1010.7 |
| 20260507204847 | 11 | 346 | 8.0 | 16.1 | 0.00 | 0.43 | 0.18 | 100 | 1010.6 |
| 20260507203429 | 11 | 357 | 1.6 | 20.9 | 0.00 | 0.43 | 0.18 | 100 | 1010.2 |
| 20260507202927 | 11 | 59 | 8.0 | 17.7 | 0.03 | 0.43 | 0.18 | 100 | 1010.5 |
| 20260507202425 | 11 | 342 | 1.6 | 14.5 | 0.08 | 0.43 | 0.18 | 100 | 1010.6 |
| 20260507201927 | 11 | 342 | 4.8 | 22.5 | 0.10 | 0.43 | 0.18 | 100 | 1010.8 |
| 20260507201425 | 11 | 336 | 9.7 | 22.5 | 0.10 | 0.43 | 0.18 | 100 | 1010.7 |
| 20260507200928 | 11 | 340 | 12.9 | 22.5 | 0.10 | 0.43 | 0.18 | 100 | 1010.9 |
| 20260507200425 | 11 | 356 | 9.7 | 22.5 | 0.10 | 0.43 | 0.18 | 100 | 1011.8 |
| 20260507195927 | 11 | 343 | 8.0 | 22.5 | 0.10 | 0.43 | 0.18 | 100 | 1011.7 |
| 20260507195428 | 11 | 344 | 11.3 | 19.3 | 0.10 | 0.43 | 0.18 | 100 | 1011.7 |
| 20260507194928 | 11 | 343 | 11.3 | 17.7 | 0.10 | 0.43 | 0.18 | 100 | 1011.6 |
| 20260507194426 | 11 | 349 | 9.7 | 24.1 | 0.10 | 0.43 | 0.18 | 100 | 1011.8 |
| 20260507193925 | 11 | 338 | 9.7 | 24.1 | 0.13 | 0.43 | 0.18 | 100 | 1011.8 |
| 20260507193425 | 11 | 347 | 14.5 | 24.1 | 0.13 | 0.43 | 0.18 | 100 | 1011.5 |
| 20260507192925 | 11 | 339 | 12.9 | 24.1 | 0.10 | 0.41 | 0.15 | 100 | 1011.9 |
| 20260507192427 | 11 | 339 | 11.3 | 20.9 | 0.05 | 0.36 | 0.10 | 100 | 1012.2 |
| 20260507191925 | 11 | 345 | 11.3 | 19.3 | 0.03 | 0.33 | 0.08 | 100 | 1011.6 |
| 20260507191425 | 11 | 336 | 11.3 | 27.4 | 0.03 | 0.33 | 0.08 | 100 | 1011.6 |
| 20260507190925 | 11 | 342 | 14.5 | 27.4 | 0.03 | 0.33 | 0.08 | 100 | 1011.5 |
| 20260507190425 | 11 | 343 | 16.1 | 24.1 | 0.03 | 0.33 | 0.08 | 100 | 1011.5 |
| 20260507190134 | 11 | 341 | 4.8 | 19.3 | 0.03 | 0.33 | 0.08 | 100 | 1011.7 |
| 20260507185925 | 11 | 341 | 4.8 | 19.3 | 0.03 | 0.33 | 0.08 | 100 | 1011.7 |
| 20260507185425 | 11 | 343 | 1.6 | 20.9 | 0.03 | 0.33 | 0.08 | 100 | 1011.6 |
| 20260507184925 | 11 | 340 | 9.7 | 24.1 | 0.03 | 0.33 | 0.08 | 100 | 1011.7 |
| 20260507184425 | 11 | 341 | 12.9 | 27.4 | 0.03 | 0.33 | 0.08 | 100 | 1011.6 |
| 20260507183927 | 11 | 346 | 14.5 | 27.4 | 0.00 | 0.30 | 0.05 | 100 | 1011.8 |
| 20260507183206 | 11 | 346 | 9.7 | 27.4 | 0.00 | 0.30 | 0.05 | 100 | 1011.7 |
| 20260507182704 | 11 | 346 | 16.1 | 29.0 | 0.00 | 0.30 | 0.05 | 100 | 1011.6 |
| 20260507182204 | 11 | 343 | 16.1 | 29.0 | 0.00 | 0.30 | 0.05 | 100 | 1011.7 |
| 20260507181704 | 11 | 349 | 12.9 | 29.0 | 0.00 | 0.30 | 0.05 | 100 | 1011.7 |
| 20260507181205 | 11 | 0 | 0.0 | 27.4 | 0.00 | 0.30 | 0.05 | 100 | 1011.7 |
| 20260507180704 | 11 | 359 | 1.6 | 27.4 | 0.00 | 0.30 | 0.05 | 100 | 1011.6 |
| 20260507180204 | 11 | 360 | 12.9 | 22.5 | 0.05 | 0.30 | 0.05 | 100 | 1011.6 |
| 20260507175705 | 11 | 10 | 11.3 | 20.9 | 0.05 | 0.33 | 0.05 | 100 | 1011.6 |
| 20260507175204 | 12 | 347 | 11.3 | 17.7 | 0.05 | 0.33 | 0.05 | 100 | 1011.8 |
| 20260507174704 | 12 | 346 | 8.0 | 20.9 | 0.05 | 0.33 | 0.05 | 100 | 1011.8 |
| 20260507174205 | 12 | 11 | 9.7 | 20.9 | 0.05 | 0.33 | 0.05 | 100 | 1011.9 |
| 20260507173204 | 12 | 1 | 3.2 | 12.9 | 0.05 | 0.36 | 0.05 | 100 | 1011.9 |
| 20260507172704 | 12 | 346 | 1.6 | 14.5 | 0.05 | 0.36 | 0.05 | 100 | 1011.9 |
| 20260507172204 | 12 | 340 | 3.2 | 16.1 | 0.05 | 0.36 | 0.05 | 100 | 1012.0 |
| 20260507171705 | 12 | 341 | 4.8 | 17.7 | 0.05 | 0.36 | 0.05 | 100 | 1011.9 |
| 20260507171206 | 12 | 328 | 8.0 | 19.3 | 0.05 | 0.36 | 0.05 | 100 | 1011.9 |
| 20260507170704 | 12 | 350 | 4.8 | 19.3 | 0.05 | 0.36 | 0.05 | 100 | 1011.9 |
| 20260507170204 | 12 | 352 | 8.0 | 19.3 | 0.00 | 0.30 | 0.00 | 100 | 1011.9 |
| 20260507165706 | 12 | 3 | 9.7 | 25.7 | 0.00 | 0.30 | 0.00 | 100 | 1011.8 |
| 20260507165205 | 12 | 333 | 6.4 | 25.7 | 0.00 | 0.30 | 0.00 | 100 | 1011.8 |
| 20260507164705 | 13 | 340 | 9.7 | 19.3 | 0.00 | 0.30 | 0.00 | 100 | 1011.7 |
| 20260507164204 | 13 | 360 | 8.0 | 20.9 | 0.00 | 0.30 | 0.00 | 100 | 1011.6 |
| 20260507163704 | 13 | 340 | 11.3 | 20.9 | 0.00 | 0.30 | 0.00 | 100 | 1011.4 |
| 20260507163204 | 13 | 347 | 8.0 | 16.1 | 0.00 | 0.30 | 0.00 | 100 | 1011.5 |
| 20260507162626 | 13 | 348 | 17.7 | 29.0 | 0.00 | 0.30 | 0.00 | 100 | 1011.6 |
| 20260507162031 | 13 | 336 | 8.0 | 19.3 | 0.00 | 0.30 | 0.00 | 100 | 1011.7 |
| 20260507161016 | 13 | 353 | 8.0 | 19.3 | 0.00 | 0.30 | 0.00 | 100 | 1011.8 |
| 20260507155619 | 13 | 346 | 6.4 | 12.9 | 0.00 | 0.33 | 0.30 | 100 | 1012.0 |
| 20260507155123 | 13 | 345 | 1.6 | 6.4 | 0.00 | 0.33 | 0.30 | 100 | 1012.1 |
| 20260507154619 | 13 | 0 | 0.0 | 6.4 | 0.00 | 0.33 | 0.30 | 100 | 1012.0 |
| 20260507154121 | 13 | 0 | 0.0 | 8.0 | 0.00 | 0.33 | 0.30 | 100 | 1011.9 |
| 20260507153618 | 13 | 345 | 3.2 | 8.0 | 0.00 | 0.33 | 0.30 | 100 | 1011.8 |
| 20260507153118 | 13 | 0 | 0.0 | 4.8 | 0.00 | 0.33 | 0.30 | 100 | 1011.8 |
| 20260507152618 | 13 | 0 | 0.0 | 8.0 | 0.00 | 0.33 | 0.30 | 100 | 1011.8 |
| 20260507152118 | 13 | 342 | 3.2 | 9.7 | 0.00 | 0.33 | 0.30 | 100 | 1011.9 |
| 20260507151618 | 13 | 0 | 0.0 | 17.7 | 0.00 | 0.33 | 0.30 | 100 | 1011.9 |
| 20260507151126 | 13 | 340 | 3.2 | 17.7 | 0.00 | 0.33 | 0.30 | 100 | 1012.0 |
| 20260507150619 | 13 | 340 | 3.2 | 9.7 | 0.00 | 0.33 | 0.30 | 100 | 1012.1 |
| 20260507150118 | 13 | 0 | 0.0 | 14.5 | 0.00 | 0.33 | 0.30 | 100 | 1012.2 |
| 20260507145618 | 13 | 0 | 0.0 | 16.1 | 0.00 | 0.33 | 0.30 | 100 | 1012.1 |
| 20260507145118 | 14 | 338 | 4.8 | 17.7 | 0.00 | 0.33 | 0.30 | 99 | 1012.1 |
| 20260507144619 | 14 | 335 | 8.0 | 17.7 | 0.00 | 0.33 | 0.30 | 100 | 1012.0 |
| 20260507144119 | 15 | 322 | 6.4 | 17.7 | 0.00 | 0.33 | 0.30 | 100 | 1012.2 |
| 20260507143619 | 16 | 0 | 0.0 | 0.0 | 0.00 | 0.33 | 0.30 | 100 | 1012.1 |
| 20260507143118 | 16 | 0 | 0.0 | 0.0 | 0.00 | 0.33 | 0.30 | 100 | 1012.0 |
| 20260507142618 | 15 | 0 | 0.0 | 0.0 | 0.00 | 0.33 | 0.30 | 100 | 1011.9 |
| 20260507142118 | 16 | 0 | 0.0 | 0.0 | 0.00 | 0.33 | 0.30 | 100 | 1011.7 |
| 20260507141620 | 15 | 0 | 0.0 | 0.0 | 0.00 | 0.33 | 0.30 | 100 | 1011.8 |
| 20260507141118 | 15 | 0 | 0.0 | 0.0 | 0.00 | 0.33 | 0.30 | 100 | 1011.9 |
| 20260507140620 | 15 | 0 | 0.0 | 0.0 | 0.00 | 0.33 | 0.30 | 100 | 1011.7 |
| 20260507140118 | 15 | 0 | 0.0 | 0.0 | 0.00 | 0.33 | 0.30 | 100 | 1011.6 |
| 20260507135706 | 15 | 0 | 0.0 | 0.0 | 0.00 | 0.33 | 0.30 | 100 | 1011.5 |
| 20260507135620 | 15 | 0 | 0.0 | 0.0 | 0.00 | 0.33 | 0.30 | 100 | 1011.5 |
| 20260507134935 | 15 | 0 | 0.0 | 0.0 | 0.00 | 0.33 | 0.30 | 100 | 1011.6 |
| 20260507134436 | 15 | 0 | 0.0 | 0.0 | 0.00 | 0.33 | 0.30 | 100 | 1011.8 |
| 20260507133935 | 16 | 0 | 0.0 | 0.0 | 0.00 | 0.33 | 0.30 | 100 | 1011.7 |
| 20260507133435 | 16 | 0 | 0.0 | 0.0 | 0.00 | 0.33 | 0.30 | 100 | 1011.7 |
| 20260507132939 | 16 | 0 | 0.0 | 0.0 | 0.00 | 0.33 | 0.30 | 100 | 1011.7 |
| 20260507132435 | 16 | 0 | 0.0 | 0.0 | 0.00 | 0.33 | 0.30 | 100 | 1011.9 |
| 20260507131936 | 16 | 0 | 0.0 | 0.0 | 0.00 | 0.33 | 0.30 | 100 | 1011.7 |
| 20260507131437 | 16 | 0 | 0.0 | 0.0 | 0.00 | 0.33 | 0.30 | 100 | 1012.0 |
| 20260507130937 | 16 | 0 | 0.0 | 0.0 | 0.00 | 0.33 | 0.30 | 100 | 1012.1 |
| 20260507130435 | 15 | 0 | 0.0 | 0.0 | 0.00 | 0.33 | 0.30 | 100 | 1012.5 |
| 20260507125935 | 15 | 0 | 0.0 | 0.0 | 0.03 | 0.33 | 0.30 | 100 | 1012.7 |
| 20260507125435 | 15 | 0 | 0.0 | 0.0 | 0.03 | 0.33 | 0.30 | 100 | 1012.7 |
| 20260507124935 | 15 | 0 | 0.0 | 0.0 | 0.03 | 0.33 | 0.30 | 100 | 1012.6 |
| 20260507124441 | 15 | 0 | 0.0 | 0.0 | 0.03 | 0.33 | 0.30 | 100 | 1012.5 |
| 20260507123941 | 15 | 0 | 0.0 | 0.0 | 0.03 | 0.33 | 0.30 | 100 | 1012.7 |
| 20260507123437 | 15 | 0 | 0.0 | 0.0 | 0.03 | 0.33 | 0.30 | 100 | 1013.1 |
| 20260507122935 | 15 | 0 | 0.0 | 1.6 | 0.03 | 0.33 | 0.30 | 100 | 1013.0 |
| 20260507122435 | 15 | 0 | 0.0 | 1.6 | 0.03 | 0.33 | 0.30 | 100 | 1013.0 |
| 20260507121935 | 15 | 0 | 0.0 | 0.0 | 0.03 | 0.33 | 0.30 | 100 | 1013.1 |
| 20260507121438 | 15 | 0 | 0.0 | 0.0 | 0.03 | 0.33 | 0.30 | 100 | 1013.2 |
| 20260507120935 | 15 | 0 | 0.0 | 11.3 | 0.03 | 0.33 | 0.30 | 100 | 1013.2 |
| 20260507120435 | 15 | 0 | 0.0 | 11.3 | 0.03 | 0.33 | 0.30 | 100 | 1012.7 |
| 20260507115936 | 15 | 0 | 0.0 | 4.8 | 0.00 | 0.30 | 0.28 | 100 | 1012.6 |
| 20260507115436 | 15 | 0 | 0.0 | 0.0 | 0.00 | 0.30 | 0.28 | 100 | 1012.7 |
| 20260507114936 | 15 | 0 | 0.0 | 0.0 | 0.00 | 0.30 | 0.28 | 100 | 1012.4 |
| 20260507114438 | 15 | 0 | 0.0 | 3.2 | 0.00 | 0.30 | 0.28 | 100 | 1012.6 |
| 20260507113935 | 15 | 0 | 0.0 | 3.2 | 0.00 | 0.30 | 0.28 | 100 | 1012.7 |
| 20260507113436 | 15 | 0 | 0.0 | 0.0 | 0.00 | 0.30 | 0.28 | 100 | 1012.5 |
| 20260507112935 | 15 | 0 | 0.0 | 0.0 | 0.00 | 0.30 | 0.28 | 100 | 1012.6 |
| 20260507112435 | 15 | 0 | 0.0 | 0.0 | 0.00 | 0.30 | 0.28 | 100 | 1012.6 |
| 20260507111939 | 15 | 0 | 0.0 | 0.0 | 0.00 | 0.30 | 0.28 | 100 | 1012.3 |
| 20260507111435 | 15 | 0 | 0.0 | 0.0 | 0.00 | 0.30 | 0.28 | 100 | 1012.1 |
| 20260507110940 | 15 | 0 | 0.0 | 3.2 | 0.00 | 0.30 | 0.28 | 100 | 1012.0 |
| 20260507110439 | 15 | 0 | 0.0 | 4.8 | 0.00 | 0.30 | 0.28 | 100 | 1012.2 |
| 20260507110032 | 15 | 0 | 0.0 | 4.8 | 0.00 | 0.30 | 0.28 | 100 | 1012.4 |
| 20260507105935 | 15 | 0 | 0.0 | 4.8 | 0.00 | 0.30 | 0.28 | 100 | 1012.4 |
| 20260507105436 | 15 | 0 | 0.0 | 0.0 | 0.00 | 0.30 | 0.28 | 100 | 1012.4 |
| 20260507104936 | 15 | 0 | 0.0 | 0.0 | 0.00 | 0.30 | 0.28 | 100 | 1012.1 |
| 20260507104436 | 15 | 0 | 0.0 | 0.0 | 0.00 | 0.30 | 0.28 | 100 | 1012.1 |
| 20260507103936 | 15 | 0 | 0.0 | 8.0 | 0.00 | 0.30 | 0.28 | 100 | 1012.1 |
| 20260507103436 | 15 | 0 | 0.0 | 8.0 | 0.00 | 0.30 | 0.28 | 100 | 1012.3 |
| 20260507102938 | 15 | 0 | 0.0 | 8.0 | 0.00 | 0.30 | 0.28 | 100 | 1012.4 |
| 20260507102515 | 15 | 0 | 0.0 | 8.0 | 0.00 | 0.30 | 0.28 | 100 | 1012.3 |
| 20260507102435 | 15 | 0 | 0.0 | 8.0 | 0.00 | 0.30 | 0.28 | 100 | 1012.3 |
| 20260507101935 | 15 | 0 | 0.0 | 0.0 | 0.00 | 0.30 | 0.28 | 100 | 1012.2 |
| 20260507101437 | 15 | 0 | 0.0 | 0.0 | 0.00 | 0.30 | 0.28 | 100 | 1011.9 |
| 20260507100935 | 15 | 0 | 0.0 | 0.0 | 0.00 | 0.30 | 0.28 | 99 | 1012.0 |
| 20260507100435 | 15 | 0 | 0.0 | 3.2 | 0.00 | 0.30 | 0.28 | 100 | 1012.0 |
| 20260507095935 | 15 | 0 | 0.0 | 3.2 | 0.00 | 0.30 | 0.28 | 99 | 1011.9 |
| 20260507095435 | 15 | 0 | 0.0 | 3.2 | 0.00 | 0.30 | 0.28 | 100 | 1012.0 |
| 20260507094936 | 15 | 0 | 0.0 | 8.0 | 0.00 | 0.30 | 0.28 | 100 | 1012.0 |
| 20260507094437 | 15 | 0 | 0.0 | 8.0 | 0.00 | 0.30 | 0.28 | 100 | 1011.9 |
| 20260507093820 | 16 | 0 | 0.0 | 11.3 | 0.00 | 0.30 | 0.28 | 100 | 1011.8 |
| 20260507093320 | 16 | 0 | 0.0 | 11.3 | 0.00 | 0.30 | 0.28 | 100 | 1011.8 |
| 20260507092319 | 15 | 277 | 1.6 | 6.4 | 0.00 | 0.30 | 0.28 | 100 | 1011.6 |
| 20260507091819 | 15 | 0 | 0.0 | 8.0 | 0.00 | 0.30 | 0.28 | 100 | 1011.5 |
| 20260507091319 | 15 | 0 | 0.0 | 8.0 | 0.00 | 0.30 | 0.28 | 100 | 1011.7 |
| 20260507090819 | 15 | 321 | 1.6 | 9.7 | 0.00 | 0.30 | 0.28 | 100 | 1011.9 |
| 20260507090319 | 15 | 321 | 3.2 | 17.7 | 0.00 | 0.30 | 0.28 | 100 | 1012.0 |
| 20260507085826 | 15 | 321 | 3.2 | 17.7 | 0.00 | 0.30 | 0.28 | 100 | 1012.4 |
| 20260507085319 | 15 | 321 | 1.6 | 16.1 | 0.00 | 0.30 | 0.28 | 100 | 1012.5 |
| 20260507084819 | 15 | 321 | 3.2 | 20.9 | 0.00 | 0.30 | 0.28 | 100 | 1012.3 |
| 20260507084319 | 15 | 320 | 6.4 | 20.9 | 0.00 | 0.30 | 0.28 | 100 | 1012.3 |
| 20260507083819 | 15 | 319 | 6.4 | 20.9 | 0.00 | 0.30 | 0.28 | 100 | 1012.3 |
| 20260507083319 | 15 | 319 | 6.4 | 20.9 | 0.00 | 0.30 | 0.28 | 100 | 1012.3 |
| 20260507082821 | 15 | 293 | 1.6 | 20.9 | 0.00 | 0.30 | 0.28 | 100 | 1012.3 |
| 20260507082319 | 15 | 298 | 4.8 | 20.9 | 0.00 | 0.30 | 0.28 | 100 | 1012.5 |
| 20260507081819 | 15 | 317 | 1.6 | 19.3 | 0.00 | 0.30 | 0.28 | 100 | 1012.4 |
| 20260507081319 | 15 | 305 | 4.8 | 22.5 | 0.00 | 0.30 | 0.28 | 100 | 1012.3 |
| 20260507080819 | 15 | 279 | 6.4 | 22.5 | 0.00 | 0.30 | 0.28 | 100 | 1012.0 |
| 20260507080319 | 15 | 266 | 3.2 | 17.7 | 0.00 | 0.30 | 0.28 | 100 | 1012.5 |
| 20260507075821 | 15 | 276 | 1.6 | 20.9 | 0.00 | 0.30 | 0.28 | 100 | 1012.3 |
| 20260507075319 | 15 | 277 | 4.8 | 22.5 | 0.00 | 0.30 | 0.28 | 100 | 1012.2 |
| 20260507074820 | 15 | 287 | 8.0 | 24.1 | 0.00 | 0.30 | 0.28 | 100 | 1012.3 |
| 20260507074319 | 15 | 285 | 3.2 | 24.1 | 0.00 | 0.30 | 0.28 | 100 | 1012.3 |
| 20260507073819 | 15 | 271 | 3.2 | 19.3 | 0.00 | 0.30 | 0.28 | 100 | 1012.4 |
| 20260507073319 | 15 | 219 | 4.8 | 19.3 | 0.00 | 0.30 | 0.28 | 100 | 1012.1 |
| 20260507072822 | 15 | 210 | 3.2 | 14.5 | 0.00 | 0.30 | 0.28 | 100 | 1012.2 |
| 20260507071821 | 15 | 198 | 4.8 | 16.1 | 0.00 | 0.30 | 0.28 | 100 | 1012.2 |
| 20260507071319 | 15 | 207 | 1.6 | 12.9 | 0.00 | 0.30 | 0.28 | 100 | 1012.4 |
| 20260507070818 | 15 | 257 | 1.6 | 17.7 | 0.00 | 0.30 | 0.28 | 100 | 1012.5 |
| 20260507070319 | 15 | 277 | 1.6 | 17.7 | 0.00 | 0.30 | 0.28 | 100 | 1012.4 |
| 20260507065821 | 15 | 258 | 1.6 | 17.7 | 0.00 | 0.30 | 0.28 | 100 | 1012.6 |
| 20260507065319 | 15 | 0 | 0.0 | 17.7 | 0.00 | 0.30 | 0.28 | 100 | 1012.8 |
| 20260507064819 | 15 | 229 | 4.8 | 20.9 | 0.00 | 0.30 | 0.28 | 100 | 1012.7 |
| 20260507064320 | 15 | 206 | 4.8 | 25.7 | 0.00 | 0.30 | 0.28 | 100 | 1012.3 |
| 20260507063819 | 15 | 207 | 4.8 | 29.0 | 0.00 | 0.30 | 0.28 | 100 | 1012.7 |
| 20260507063318 | 15 | 204 | 11.3 | 33.8 | 0.00 | 0.30 | 0.28 | 100 | 1012.6 |
| 20260507062821 | 15 | 202 | 16.1 | 33.8 | 0.00 | 0.30 | 0.28 | 100 | 1012.5 |
| 20260507062319 | 15 | 197 | 9.7 | 29.0 | 0.00 | 0.30 | 0.28 | 100 | 1012.6 |
| 20260507061820 | 15 | 201 | 11.3 | 30.6 | 0.00 | 0.30 | 0.28 | 99 | 1012.4 |
| 20260507061319 | 15 | 194 | 14.5 | 32.2 | 0.00 | 0.30 | 0.28 | 100 | 1012.6 |
| 20260507060819 | 15 | 190 | 16.1 | 35.4 | 0.00 | 0.30 | 0.28 | 100 | 1012.7 |
| 20260507060319 | 15 | 192 | 19.3 | 37.0 | 0.00 | 0.30 | 0.28 | 100 | 1012.7 |
| 20260507055819 | 15 | 193 | 17.7 | 37.0 | 0.03 | 0.30 | 0.28 | 100 | 1013.2 |
| 20260507055319 | 16 | 197 | 9.7 | 20.9 | 0.03 | 0.30 | 0.28 | 100 | 1013.6 |
| 20260507054820 | 16 | 220 | 3.2 | 20.9 | 0.03 | 0.30 | 0.28 | 100 | 1014.0 |
| 20260507054318 | 16 | 240 | 1.6 | 14.5 | 0.03 | 0.30 | 0.28 | 100 | 1014.1 |
| 20260507053819 | 16 | 256 | 1.6 | 12.9 | 0.03 | 0.30 | 0.28 | 99 | 1014.0 |
| 20260507053319 | 16 | 274 | 1.6 | 9.7 | 0.03 | 0.30 | 0.28 | 100 | 1014.1 |
| 20260507052818 | 16 | 0 | 0.0 | 12.9 | 0.03 | 0.30 | 0.28 | 99 | 1014.4 |
| 20260507052318 | 16 | 231 | 1.6 | 19.3 | 0.03 | 0.30 | 0.28 | 99 | 1014.5 |
| 20260507051818 | 16 | 236 | 3.2 | 19.3 | 0.03 | 0.30 | 0.28 | 99 | 1014.7 |
| 20260507051318 | 16 | 201 | 1.6 | 12.9 | 0.03 | 0.30 | 0.28 | 100 | 1014.8 |
| 20260507050818 | 16 | 192 | 1.6 | 9.7 | 0.03 | 0.30 | 0.28 | 100 | 1014.7 |
| 20260507050319 | 16 | 0 | 0.0 | 9.7 | 0.03 | 0.30 | 0.28 | 100 | 1014.8 |
| 20260507045819 | 16 | 197 | 1.6 | 9.7 | 0.00 | 0.28 | 0.25 | 99 | 1014.8 |
| 20260507045319 | 16 | 211 | 1.6 | 12.9 | 0.00 | 0.28 | 0.25 | 99 | 1015.2 |
| 20260507044820 | 16 | 207 | 1.6 | 14.5 | 0.00 | 0.28 | 0.25 | 99 | 1014.9 |
| 20260507044319 | 16 | 209 | 4.8 | 16.1 | 0.00 | 0.28 | 0.25 | 99 | 1014.5 |
| 20260507043819 | 16 | 233 | 1.6 | 16.1 | 0.00 | 0.28 | 0.25 | 99 | 1014.5 |
| 20260507043318 | 16 | 0 | 0.0 | 12.9 | 0.00 | 0.28 | 0.25 | 99 | 1014.5 |
| 20260507042824 | 16 | 0 | 0.0 | 11.3 | 0.00 | 0.28 | 0.25 | 99 | 1014.6 |
| 20260507041858 | 16 | 211 | 1.6 | 16.1 | 0.00 | 0.28 | 0.25 | 99 | 1014.1 |